TimeMST,TemperatureF,Dew PointF,Humidity,Sea Level PressureIn,VisibilityMPH,Wind Direction,Wind SpeedMPH,Gust SpeedMPH,PrecipitationIn,Events,Conditions,WindDirDegrees,DateUTC
12:53 AM,6.1,-0.9,73,30.03,10.0,Variable,4.6,-,N/A,,Clear,0,2013-02-04 07:53:00
1:53 AM,3.9,-2.0,76,30.05,10.0,NNE,8.1,-,N/A,,Clear,20,2013-02-04 08:53:00
3:53 AM,7.0,-2.0,67,30.04,10.0,NE,10.4,-,N/A,,Clear,40,2013-02-04 10:53:00
4:53 AM,8.1,-5.1,55,30.06,10.0,NE,10.4,-,N/A,,Clear,40,2013-02-04 11:53:00
5:53 AM,8.1,-7.1,50,30.07,10.0,NE,10.4,-,N/A,,Clear,40,2013-02-04 12:53:00
6:53 AM,9.0,-6.0,51,30.07,10.0,NNE,9.2,-,N/A,,Clear,30,2013-02-04 13:53:00
7:53 AM,10.0,-5.1,51,30.08,10.0,NNE,8.1,-,N/A,,Clear,30,2013-02-04 14:53:00
8:53 AM,19.9,-2.9,37,30.06,10.0,NNE,3.5,-,N/A,,Clear,30,2013-02-04 15:53:00
9:53 AM,26.1,-2.0,30,30.04,10.0,Variable,4.6,-,N/A,,Clear,0,2013-02-04 16:53:00
10:53 AM,28.0,-0.0,30,30.03,10.0,WNW,12.7,20.7,N/A,,Clear,300,2013-02-04 17:53:00
11:53 AM,30.0,1.9,30,30.03,10.0,WNW,19.6,27.6,N/A,,Clear,290,2013-02-04 18:53:00
12:53 PM,28.9,1.9,32,30.01,10.0,WNW,18.4,31.1,N/A,,Clear,300,2013-02-04 19:53:00
1:53 PM,30.0,1.0,29,30.01,10.0,West,17.3,-,N/A,,Clear,280,2013-02-04 20:53:00
2:53 PM,30.9,3.0,31,29.98,10.0,NW,13.8,28.8,N/A,,Partly Cloudy,310,2013-02-04 21:53:00
3:53 PM,28.9,1.9,32,30.00,10.0,WNW,21.9,25.3,N/A,,Clear,300,2013-02-04 22:53:00
4:53 PM,27.0,3.9,37,30.01,10.0,WNW,18.4,27.6,N/A,,Clear,290,2013-02-04 23:53:00
5:53 PM,26.1,3.9,39,30.06,10.0,South,3.5,-,N/A,,Overcast,190,2013-02-05 00:53:00
6:53 PM,25.0,5.0,43,30.08,10.0,WSW,5.8,-,N/A,,Overcast,250,2013-02-05 01:53:00
7:53 PM,23.0,5.0,46,30.08,10.0,West,4.6,-,N/A,,Partly Cloudy,280,2013-02-05 02:53:00
8:53 PM,19.0,3.9,52,30.06,10.0,Calm,Calm,-,N/A,,Clear,0,2013-02-05 03:53:00
9:53 PM,17.1,3.9,56,30.02,10.0,Variable,3.5,-,N/A,,Clear,0,2013-02-05 04:53:00
10:53 PM,12.0,3.0,67,30.06,10.0,NE,8.1,-,N/A,,Clear,40,2013-02-05 05:53:00
11:53 PM,12.0,3.9,70,30.04,10.0,NE,9.2,-,N/A,,Clear,40,2013-02-05 06:53:00